TAM4775 SBAR-SBBR

Flight info

Callsign TAM4775
Flight time 1h 58m
Altitude 36000
Route DABAD UZ30 ARNOX UZ17 DALMU
Aircraft A319/M-SDE3FGHIRWY/LB1

Departure

Time 2026-05-05 21:42
Airport Aracaju - Santa Maria Airport (SBAR)

Arrival

Time 2026-05-05 23:40
Airport Presidente Juscelino Kubitschek International Airport (SBBR)
Time Latitude Longitude Altitude Speed Heading
2026-05-05 20:59 -10.98637 -37.07317 30 ft 0 kts 181°
2026-05-05 21:32 -10.98623 -37.07317 29 ft 3 kts 178°
2026-05-05 21:32 -10.98603 -37.07319 29 ft 3 kts 163°
2026-05-05 21:32 -10.98586 -37.07327 29 ft 3 kts 128°
2026-05-05 21:32 -10.98580 -37.07339 29 ft 0 kts 93°
2026-05-05 21:36 -10.98580 -37.07335 29 ft 1 kts 93°
2026-05-05 21:36 -10.98581 -37.07311 29 ft 5 kts 93°
2026-05-05 21:36 -10.98583 -37.07269 29 ft 7 kts 93°
2026-05-05 21:36 -10.98566 -37.07233 29 ft 7 kts 18°
2026-05-05 21:37 -10.98515 -37.07234 28 ft 8 kts 359°
2026-05-05 21:37 -10.98454 -37.07234 28 ft 10 kts
2026-05-05 21:37 -10.98394 -37.07257 27 ft 10 kts 291°
2026-05-05 21:37 -10.98392 -37.07328 28 ft 10 kts 270°
2026-05-05 21:38 -10.98390 -37.07399 29 ft 11 kts 271°
2026-05-05 21:38 -10.98388 -37.07481 31 ft 12 kts 271°
2026-05-05 21:38 -10.98385 -37.07577 32 ft 15 kts 272°
2026-05-05 21:38 -10.98380 -37.07703 30 ft 21 kts 272°
2026-05-05 21:39 -10.98376 -37.07868 29 ft 26 kts 271°
2026-05-05 21:39 -10.98372 -37.08052 29 ft 21 kts 271°
2026-05-05 21:39 -10.98369 -37.08077 29 ft 1 kts 297°
2026-05-05 21:39 -10.98364 -37.08076 29 ft 1 kts 357°
2026-05-05 21:40 -10.98363 -37.08068 29 ft 2 kts 80°
2026-05-05 21:40 -10.98366 -37.08040 29 ft 5 kts 95°
2026-05-05 21:40 -10.98370 -37.08000 30 ft 6 kts 91°
2026-05-05 21:40 -10.98370 -37.07990 30 ft 0 kts 91°
2026-05-05 21:41 -10.98373 -37.07907 29 ft 38 kts 92°
2026-05-05 21:41 -10.98391 -37.07406 30 ft 103 kts 91°
2026-05-05 21:42 -10.98425 -37.06469 49 ft 158 kts 96°
2026-05-05 21:42 -10.98453 -37.05365 671 ft 154 kts 95°
2026-05-05 21:42 -10.98500 -37.04277 1263 ft 156 kts 97°
2026-05-05 21:42 -10.98558 -37.03116 1532 ft 176 kts 97°
2026-05-05 21:43 -10.98937 -37.01906 1711 ft 195 kts 132°
2026-05-05 21:43 -11.00182 -37.01254 1967 ft 219 kts 172°
2026-05-05 21:43 -11.01783 -37.01125 2391 ft 242 kts 175°
2026-05-05 21:43 -11.03504 -37.00989 3159 ft 251 kts 173°
2026-05-05 21:44 -11.05252 -37.00841 4068 ft 254 kts 173°
2026-05-05 21:44 -11.07024 -37.00679 4943 ft 258 kts 173°
2026-05-05 21:44 -11.08826 -37.00505 5794 ft 262 kts 172°
2026-05-05 21:44 -11.10650 -37.00323 6614 ft 266 kts 172°
2026-05-05 21:45 -11.12519 -37.00229 7331 ft 274 kts 184°
2026-05-05 21:45 -11.14328 -37.00923 8007 ft 288 kts 213°
2026-05-05 21:45 -11.15617 -37.02512 8695 ft 300 kts 245°
2026-05-05 21:45 -11.16096 -37.04602 9374 ft 308 kts 261°
2026-05-05 21:46 -11.16384 -37.06783 10070 ft 313 kts 262°
2026-05-05 21:46 -11.16667 -37.09048 10335 ft 334 kts 263°
2026-05-05 21:46 -11.16970 -37.11477 10476 ft 356 kts 262°
2026-05-05 21:46 -11.17294 -37.14018 10875 ft 366 kts 262°
2026-05-05 21:47 -11.17631 -37.16607 11473 ft 370 kts 262°
2026-05-05 21:47 -11.17976 -37.19211 12078 ft 373 kts 262°
2026-05-05 21:47 -11.18329 -37.21844 12675 ft 377 kts 263°
2026-05-05 21:47 -11.18685 -37.24497 13310 ft 379 kts 263°
2026-05-05 21:48 -11.19045 -37.27159 13942 ft 380 kts 263°
2026-05-05 21:48 -11.19406 -37.29839 14480 ft 383 kts 263°
2026-05-05 21:48 -11.19764 -37.32531 15010 ft 385 kts 263°
2026-05-05 21:48 -11.20122 -37.35243 15507 ft 388 kts 263°
2026-05-05 21:49 -11.20483 -37.37976 16030 ft 391 kts 263°
2026-05-05 21:49 -11.20847 -37.40723 16549 ft 392 kts 262°
2026-05-05 21:49 -11.21215 -37.43492 17007 ft 396 kts 262°
2026-05-05 21:49 -11.21579 -37.46242 17495 ft 399 kts 262°
2026-05-05 21:50 -11.21949 -37.49048 17993 ft 401 kts 262°
2026-05-05 21:50 -11.22322 -37.51867 18485 ft 402 kts 262°
2026-05-05 21:50 -11.22695 -37.54693 18937 ft 404 kts 262°
2026-05-05 21:50 -11.23070 -37.57534 19364 ft 406 kts 262°
2026-05-05 21:51 -11.23449 -37.60386 19811 ft 407 kts 262°
2026-05-05 21:51 -11.23829 -37.63249 20275 ft 409 kts 262°
2026-05-05 21:51 -11.24208 -37.66125 20739 ft 410 kts 262°
2026-05-05 21:51 -11.24594 -37.69007 21188 ft 411 kts 260°
2026-05-05 21:52 -11.26272 -37.74576 22037 ft 413 kts 249°
2026-05-05 21:52 -11.27304 -37.77315 22434 ft 415 kts 248°
2026-05-05 21:52 -11.28339 -37.80070 22854 ft 417 kts 248°
2026-05-05 21:53 -11.29372 -37.82832 23267 ft 418 kts 249°
2026-05-05 21:53 -11.30401 -37.85603 23636 ft 420 kts 249°
2026-05-05 21:53 -11.31437 -37.88396 23956 ft 422 kts 249°
2026-05-05 21:53 -11.32473 -37.91193 24283 ft 423 kts 249°
2026-05-05 21:54 -11.33515 -37.94003 24600 ft 425 kts 249°
2026-05-05 21:54 -11.34562 -37.96825 24903 ft 427 kts 249°
2026-05-05 21:54 -11.35616 -37.99652 25235 ft 428 kts 249°
2026-05-05 21:54 -11.36675 -38.02489 25560 ft 429 kts 249°
2026-05-05 21:55 -11.37737 -38.05331 25864 ft 431 kts 249°
2026-05-05 21:55 -11.38807 -38.08195 26172 ft 433 kts 250°
2026-05-05 21:55 -11.39877 -38.11067 26478 ft 434 kts 250°
2026-05-05 21:55 -11.40952 -38.13953 26778 ft 436 kts 250°
2026-05-05 21:56 -11.42026 -38.16848 27072 ft 438 kts 250°
2026-05-05 21:56 -11.43101 -38.19757 27373 ft 439 kts 250°
2026-05-05 21:56 -11.44180 -38.22678 27678 ft 441 kts 250°
2026-05-05 21:56 -11.45249 -38.25571 27975 ft 443 kts 250°
2026-05-05 21:57 -11.46352 -38.28553 28273 ft 444 kts 250°
2026-05-05 21:57 -11.47463 -38.31452 28575 ft 446 kts 246°
2026-05-05 21:57 -11.48949 -38.34234 28864 ft 449 kts 238°
2026-05-05 21:57 -11.50875 -38.36750 29134 ft 452 kts 228°
2026-05-05 21:58 -11.53199 -38.38932 29419 ft 456 kts 219°
2026-05-05 21:58 -11.55743 -38.40875 29693 ft 458 kts 219°
2026-05-05 21:58 -11.58300 -38.42830 29965 ft 460 kts 219°
2026-05-05 21:58 -11.60846 -38.44786 30207 ft 462 kts 219°
2026-05-05 21:59 -11.63415 -38.46761 30436 ft 463 kts 219°
2026-05-05 21:59 -11.65993 -38.48743 30682 ft 464 kts 219°
2026-05-05 21:59 -11.67696 -38.50052 30907 ft 463 kts 219°
2026-05-05 21:59 -11.70261 -38.52023 31268 ft 461 kts 219°
2026-05-05 22:00 -11.72816 -38.53980 31628 ft 459 kts 219°
2026-05-05 22:00 -11.75368 -38.55924 31992 ft 457 kts 219°
2026-05-05 22:00 -11.77908 -38.57856 32364 ft 455 kts 219°
2026-05-05 22:00 -11.80439 -38.59781 32739 ft 453 kts 219°
2026-05-05 22:01 -11.82958 -38.61696 33123 ft 451 kts 219°
2026-05-05 22:01 -11.85469 -38.63603 33513 ft 449 kts 219°
2026-05-05 22:01 -11.87966 -38.65504 33900 ft 447 kts 219°
2026-05-05 22:01 -11.90452 -38.67403 34280 ft 444 kts 219°
2026-05-05 22:02 -11.92915 -38.69288 34672 ft 441 kts 219°
2026-05-05 22:02 -11.95365 -38.71165 35047 ft 439 kts 219°
2026-05-05 22:02 -11.97798 -38.73028 35388 ft 437 kts 219°
2026-05-05 22:02 -12.00224 -38.74884 35715 ft 435 kts 219°
2026-05-05 22:03 -12.02640 -38.76733 36005 ft 434 kts 220°
2026-05-05 22:03 -12.07454 -38.80413 36101 ft 430 kts 220°
2026-05-05 22:04 -12.12243 -38.84071 36104 ft 429 kts 220°
2026-05-05 22:04 -12.17025 -38.87726 36107 ft 429 kts 220°
2026-05-05 22:05 -12.21806 -38.91386 36104 ft 429 kts 220°
2026-05-05 22:05 -12.26587 -38.95046 36101 ft 429 kts 220°
2026-05-05 22:06 -12.31333 -38.98685 36112 ft 429 kts 220°
2026-05-05 22:06 -12.36106 -39.02349 36106 ft 429 kts 220°
2026-05-05 22:07 -12.40881 -39.06013 36099 ft 429 kts 220°
2026-05-05 22:07 -12.45654 -39.09674 36095 ft 429 kts 220°
2026-05-05 22:08 -12.50422 -39.13331 36097 ft 429 kts 220°
2026-05-05 22:08 -12.55190 -39.16992 36112 ft 428 kts 220°
2026-05-05 22:09 -12.59946 -39.20655 36110 ft 428 kts 220°
2026-05-05 22:09 -12.64705 -39.24314 36105 ft 428 kts 220°
2026-05-05 22:10 -12.69435 -39.28004 36103 ft 427 kts 220°
2026-05-05 22:10 -12.74123 -39.31741 36105 ft 427 kts 221°
2026-05-05 22:11 -12.78816 -39.35474 36117 ft 427 kts 220°
2026-05-05 22:11 -12.83523 -39.39193 36116 ft 427 kts 220°
2026-05-05 22:12 -12.88224 -39.42908 36116 ft 427 kts 220°
2026-05-05 22:12 -12.92919 -39.46627 36114 ft 427 kts 220°
2026-05-05 22:13 -12.97615 -39.50349 36113 ft 426 kts 220°
2026-05-05 22:13 -13.02305 -39.54072 36118 ft 426 kts 220°
2026-05-05 22:14 -13.06993 -39.57798 36122 ft 427 kts 220°
2026-05-05 22:14 -13.11653 -39.61495 36128 ft 426 kts 220°
2026-05-05 22:15 -13.16342 -39.65220 36131 ft 426 kts 220°
2026-05-05 22:15 -13.21030 -39.68947 36135 ft 426 kts 220°
2026-05-05 22:16 -13.25698 -39.72689 36138 ft 425 kts 224°
2026-05-05 22:16 -13.29414 -39.77310 36146 ft 420 kts 242°
2026-05-05 22:17 -13.31878 -39.82737 36138 ft 419 kts 246°
2026-05-05 22:17 -13.34261 -39.88205 36136 ft 420 kts 246°
2026-05-05 22:18 -13.36656 -39.93673 36144 ft 420 kts 246°
2026-05-05 22:18 -13.39045 -39.99146 36138 ft 420 kts 246°
2026-05-05 22:19 -13.41425 -40.04622 36143 ft 420 kts 246°
2026-05-05 22:19 -13.43802 -40.10102 36145 ft 420 kts 246°
2026-05-05 22:20 -13.46169 -40.15541 36142 ft 420 kts 246°
2026-05-05 22:20 -13.48547 -40.21015 36153 ft 420 kts 246°
2026-05-05 22:21 -13.50921 -40.26499 36151 ft 420 kts 246°
2026-05-05 22:21 -13.53291 -40.31983 36152 ft 420 kts 246°
2026-05-05 22:22 -13.55663 -40.37469 36151 ft 420 kts 246°
2026-05-05 22:22 -13.58033 -40.42950 36145 ft 420 kts 246°
2026-05-05 22:23 -13.60406 -40.48432 36138 ft 420 kts 246°
2026-05-05 22:23 -13.62777 -40.53910 36144 ft 419 kts 246°
2026-05-05 22:24 -13.65137 -40.59389 36136 ft 419 kts 246°
2026-05-05 22:24 -13.67485 -40.64826 36142 ft 419 kts 246°
2026-05-05 22:25 -13.69843 -40.70297 36132 ft 418 kts 245°
2026-05-05 22:25 -13.72202 -40.75763 36133 ft 418 kts 245°
2026-05-05 22:26 -13.74553 -40.81224 36133 ft 417 kts 245°
2026-05-05 22:26 -13.76895 -40.86690 36129 ft 417 kts 246°
2026-05-05 22:27 -13.79234 -40.92151 36133 ft 417 kts 245°
2026-05-05 22:27 -13.81572 -40.97614 36130 ft 417 kts 245°
2026-05-05 22:28 -13.83911 -41.03070 36133 ft 416 kts 245°
2026-05-05 22:28 -13.86254 -41.08520 36142 ft 416 kts 245°
2026-05-05 22:29 -13.88590 -41.13972 36141 ft 416 kts 245°
2026-05-05 22:29 -13.90922 -41.19413 36144 ft 415 kts 245°
2026-05-05 22:30 -13.93257 -41.24848 36136 ft 415 kts 245°
2026-05-05 22:30 -13.95585 -41.30287 36130 ft 415 kts 245°
2026-05-05 22:31 -13.97905 -41.35730 36124 ft 415 kts 245°
2026-05-05 22:31 -14.00225 -41.41173 36134 ft 415 kts 245°
2026-05-05 22:32 -14.02549 -41.46613 36130 ft 415 kts 245°
2026-05-05 22:32 -14.04872 -41.52048 36138 ft 415 kts 245°
2026-05-05 22:33 -14.07172 -41.57450 36136 ft 414 kts 245°
2026-05-05 22:33 -14.09479 -41.62881 36132 ft 414 kts 245°
2026-05-05 22:34 -14.11797 -41.68310 36128 ft 414 kts 245°
2026-05-05 22:34 -14.14112 -41.73736 36128 ft 414 kts 245°
2026-05-05 22:35 -14.16413 -41.79167 36121 ft 413 kts 245°
2026-05-05 22:35 -14.18714 -41.84593 36133 ft 413 kts 245°
2026-05-05 22:36 -14.21014 -41.90013 36135 ft 413 kts 245°
2026-05-05 22:36 -14.23317 -41.95431 36134 ft 412 kts 245°
2026-05-05 22:37 -14.25611 -42.00847 36140 ft 412 kts 245°
2026-05-05 22:37 -14.27905 -42.06260 36142 ft 412 kts 245°
2026-05-05 22:38 -14.30196 -42.11672 36145 ft 412 kts 245°
2026-05-05 22:38 -14.32482 -42.17079 36147 ft 411 kts 245°
2026-05-05 22:39 -14.34770 -42.22492 36143 ft 411 kts 245°
2026-05-05 22:39 -14.37045 -42.27900 36146 ft 411 kts 245°
2026-05-05 22:40 -14.39301 -42.33273 36169 ft 411 kts 245°
2026-05-05 22:40 -14.41573 -42.38673 36160 ft 410 kts 245°
2026-05-05 22:41 -14.43848 -42.44071 36157 ft 410 kts 245°
2026-05-05 22:41 -14.45750 -42.48602 36157 ft 410 kts 245°
2026-05-05 22:42 -14.48383 -42.54873 36149 ft 409 kts 245°
2026-05-05 22:42 -14.50650 -42.60262 36142 ft 409 kts 245°
2026-05-05 22:43 -14.52914 -42.65647 36136 ft 409 kts 244°
2026-05-05 22:43 -14.55175 -42.71027 36133 ft 409 kts 244°
2026-05-05 22:44 -14.57435 -42.76418 36146 ft 409 kts 245°
2026-05-05 22:44 -14.59693 -42.81803 36140 ft 409 kts 245°
2026-05-05 22:45 -14.61946 -42.87190 36132 ft 408 kts 244°
2026-05-05 22:45 -14.64197 -42.92567 36124 ft 408 kts 244°
2026-05-05 22:46 -14.66428 -42.97916 36125 ft 408 kts 245°
2026-05-05 22:46 -14.68672 -43.03294 36103 ft 408 kts 244°
2026-05-05 22:47 -14.70922 -43.08679 36105 ft 408 kts 244°
2026-05-05 22:47 -14.73162 -43.14056 36122 ft 408 kts 244°
2026-05-05 22:48 -14.75402 -43.19430 36115 ft 407 kts 244°
2026-05-05 22:48 -14.77648 -43.24807 36116 ft 407 kts 244°
2026-05-05 22:49 -14.79530 -43.29315 36122 ft 408 kts 244°
2026-05-05 22:49 -14.81750 -43.34667 36122 ft 408 kts 244°
2026-05-05 22:50 -14.83988 -43.40052 36122 ft 408 kts 244°
2026-05-05 22:50 -14.86226 -43.45428 36110 ft 407 kts 244°
2026-05-05 22:51 -14.88453 -43.50810 36113 ft 407 kts 244°
2026-05-05 22:51 -14.90678 -43.56196 36121 ft 407 kts 244°
2026-05-05 22:52 -14.92907 -43.61578 36122 ft 407 kts 244°
2026-05-05 22:52 -14.95142 -43.66955 36112 ft 407 kts 244°
2026-05-05 22:53 -14.97365 -43.72338 36119 ft 407 kts 244°
2026-05-05 22:53 -14.99590 -43.77709 36113 ft 407 kts 244°
2026-05-05 22:54 -15.01820 -43.83089 36111 ft 407 kts 244°
2026-05-05 22:54 -15.04032 -43.88477 36109 ft 407 kts 244°
2026-05-05 22:55 -15.06244 -43.93860 36132 ft 406 kts 244°
2026-05-05 22:55 -15.08455 -43.99242 36135 ft 406 kts 244°
2026-05-05 22:56 -15.10662 -44.04623 36118 ft 406 kts 244°
2026-05-05 22:56 -15.12864 -44.09996 36123 ft 406 kts 244°
2026-05-05 22:57 -15.15071 -44.15366 36131 ft 405 kts 244°
2026-05-05 22:57 -15.17279 -44.20734 36124 ft 405 kts 244°
2026-05-05 22:58 -15.19478 -44.26101 36124 ft 405 kts 244°
2026-05-05 22:58 -15.21678 -44.31468 36132 ft 405 kts 244°
2026-05-05 22:59 -15.23867 -44.36835 36127 ft 405 kts 244°
2026-05-05 22:59 -15.26063 -44.42204 36118 ft 405 kts 244°
2026-05-05 23:00 -15.29365 -44.50244 36127 ft 404 kts 243°
2026-05-05 23:00 -15.31553 -44.55611 36124 ft 404 kts 244°
2026-05-05 23:01 -15.33741 -44.60982 36126 ft 404 kts 243°
2026-05-05 23:01 -15.35916 -44.66315 36121 ft 404 kts 243°
2026-05-05 23:02 -15.38106 -44.71682 36140 ft 405 kts 243°
2026-05-05 23:02 -15.40294 -44.77055 36135 ft 404 kts 243°
2026-05-05 23:03 -15.42476 -44.82425 36130 ft 404 kts 243°
2026-05-05 23:03 -15.44650 -44.87797 36130 ft 404 kts 243°
2026-05-05 23:04 -15.46618 -44.93259 36126 ft 409 kts 253°
2026-05-05 23:04 -15.47724 -44.99057 36126 ft 410 kts 254°
2026-05-05 23:05 -15.48806 -45.04867 36126 ft 410 kts 254°
2026-05-05 23:05 -15.49898 -45.10668 36127 ft 410 kts 254°
2026-05-05 23:06 -15.50996 -45.16473 36128 ft 410 kts 254°
2026-05-05 23:06 -15.52088 -45.22274 36123 ft 410 kts 253°
2026-05-05 23:07 -15.53180 -45.28079 36124 ft 410 kts 253°
2026-05-05 23:07 -15.54261 -45.33875 36123 ft 410 kts 253°
2026-05-05 23:08 -15.55339 -45.39669 36122 ft 409 kts 253°
2026-05-05 23:08 -15.56416 -45.45432 36125 ft 409 kts 253°
2026-05-05 23:09 -15.57497 -45.51226 36128 ft 409 kts 253°
2026-05-05 23:09 -15.58569 -45.57015 36127 ft 409 kts 253°
2026-05-05 23:10 -15.59643 -45.62810 36119 ft 409 kts 253°
2026-05-05 23:10 -15.60718 -45.68598 36120 ft 409 kts 253°
2026-05-05 23:11 -15.61798 -45.74382 36121 ft 409 kts 253°
2026-05-05 23:11 -15.62866 -45.80170 36114 ft 409 kts 253°
2026-05-05 23:12 -15.63935 -45.85959 36119 ft 409 kts 253°
2026-05-05 23:12 -15.64999 -45.91751 36119 ft 409 kts 253°
2026-05-05 23:13 -15.66059 -45.97507 36124 ft 409 kts 253°
2026-05-05 23:13 -15.67127 -46.03298 36126 ft 409 kts 253°
2026-05-05 23:14 -15.68193 -46.09085 36130 ft 409 kts 253°
2026-05-05 23:14 -15.69255 -46.14881 36131 ft 409 kts 253°
2026-05-05 23:15 -15.70315 -46.20671 36129 ft 409 kts 253°
2026-05-05 23:15 -15.71374 -46.26466 36134 ft 409 kts 252°
2026-05-05 23:16 -15.72427 -46.32268 36131 ft 409 kts 253°
2026-05-05 23:16 -15.73480 -46.38072 36140 ft 409 kts 253°
2026-05-05 23:17 -15.74534 -46.43880 36142 ft 409 kts 253°
2026-05-05 23:17 -15.75060 -46.46781 35950 ft 410 kts 253°
2026-05-05 23:17 -15.75589 -46.49688 35714 ft 410 kts 253°
2026-05-05 23:18 -15.76120 -46.52599 35475 ft 411 kts 253°
2026-05-05 23:18 -15.76652 -46.55521 35241 ft 412 kts 253°
2026-05-05 23:18 -15.77182 -46.58446 35011 ft 413 kts 253°
2026-05-05 23:18 -15.77717 -46.61390 34782 ft 414 kts 252°
2026-05-05 23:19 -15.78251 -46.64332 34551 ft 415 kts 252°
2026-05-05 23:19 -15.78780 -46.67243 34254 ft 416 kts 252°
2026-05-05 23:19 -15.79318 -46.70217 33347 ft 422 kts 253°
2026-05-05 23:19 -15.79862 -46.73226 32491 ft 426 kts 254°
2026-05-05 23:20 -15.80412 -46.76272 31595 ft 431 kts 255°
2026-05-05 23:20 -15.80955 -46.79308 31150 ft 425 kts 255°
2026-05-05 23:20 -15.81489 -46.82313 30635 ft 422 kts 256°
2026-05-05 23:20 -15.82034 -46.85303 30112 ft 420 kts 256°
2026-05-05 23:21 -15.82580 -46.88274 29434 ft 418 kts 256°
2026-05-05 23:21 -15.83115 -46.91230 28907 ft 414 kts 256°
2026-05-05 23:21 -15.83638 -46.94152 28369 ft 409 kts 256°
2026-05-05 23:21 -15.84154 -46.97044 27847 ft 406 kts 256°
2026-05-05 23:22 -15.84664 -46.99911 27321 ft 402 kts 256°
2026-05-05 23:22 -15.85171 -47.02756 26808 ft 399 kts 256°
2026-05-05 23:22 -15.85673 -47.05581 26294 ft 397 kts 257°
2026-05-05 23:22 -15.86175 -47.08396 25793 ft 395 kts 257°
2026-05-05 23:23 -15.86674 -47.11196 25297 ft 393 kts 257°
2026-05-05 23:23 -15.87170 -47.13980 24806 ft 392 kts 257°
2026-05-05 23:23 -15.87666 -47.16767 24331 ft 392 kts 257°
2026-05-05 23:23 -15.88159 -47.19547 23858 ft 391 kts 257°
2026-05-05 23:24 -15.88652 -47.22331 23345 ft 390 kts 257°
2026-05-05 23:24 -15.89135 -47.25058 22891 ft 387 kts 257°
2026-05-05 23:24 -15.89619 -47.27793 22432 ft 383 kts 257°
2026-05-05 23:24 -15.90099 -47.30502 22000 ft 379 kts 257°
2026-05-05 23:25 -15.90573 -47.33184 21553 ft 376 kts 257°
2026-05-05 23:25 -15.91043 -47.35845 21107 ft 373 kts 257°
2026-05-05 23:25 -15.91511 -47.38483 20660 ft 370 kts 257°
2026-05-05 23:25 -15.91975 -47.41099 20203 ft 367 kts 257°
2026-05-05 23:26 -15.92432 -47.43699 19747 ft 365 kts 257°
2026-05-05 23:26 -15.92887 -47.46290 19273 ft 364 kts 257°
2026-05-05 23:26 -15.93338 -47.48842 18805 ft 363 kts 257°
2026-05-05 23:26 -15.93801 -47.51449 18292 ft 362 kts 257°
2026-05-05 23:27 -15.94250 -47.53981 17787 ft 360 kts 258°
2026-05-05 23:27 -15.94701 -47.56534 17296 ft 358 kts 258°
2026-05-05 23:27 -15.95145 -47.59069 16810 ft 355 kts 258°
2026-05-05 23:27 -15.95475 -47.61614 16305 ft 355 kts 265°
2026-05-05 23:28 -15.95634 -47.64169 15804 ft 354 kts 265°
2026-05-05 23:28 -15.95793 -47.66718 15304 ft 353 kts 265°
2026-05-05 23:28 -15.95953 -47.69265 14802 ft 353 kts 265°
2026-05-05 23:28 -15.96116 -47.71810 14295 ft 353 kts 265°
2026-05-05 23:29 -15.96282 -47.74357 13765 ft 353 kts 265°
2026-05-05 23:29 -15.96445 -47.76896 13239 ft 352 kts 265°
2026-05-05 23:29 -15.96609 -47.79432 12734 ft 350 kts 265°
2026-05-05 23:29 -15.96773 -47.81953 12340 ft 349 kts 266°
2026-05-05 23:30 -15.96931 -47.84468 11849 ft 348 kts 266°
2026-05-05 23:30 -15.97033 -47.86112 11718 ft 341 kts 266°
2026-05-05 23:30 -15.97236 -47.89325 11560 ft 325 kts 266°
2026-05-05 23:30 -15.97383 -47.91629 11440 ft 315 kts 266°
2026-05-05 23:31 -15.97524 -47.93859 11320 ft 305 kts 266°
2026-05-05 23:31 -15.97662 -47.96022 11200 ft 296 kts 266°
2026-05-05 23:31 -15.97798 -47.98129 11077 ft 288 kts 266°
2026-05-05 23:31 -15.97927 -48.00139 10882 ft 282 kts 266°
2026-05-05 23:32 -15.98056 -48.02162 10495 ft 280 kts 267°
2026-05-05 23:32 -15.98186 -48.04172 10123 ft 278 kts 267°
2026-05-05 23:32 -15.98315 -48.06171 9714 ft 276 kts 267°
2026-05-05 23:32 -15.98441 -48.08160 9225 ft 275 kts 266°
2026-05-05 23:33 -15.98563 -48.10136 8773 ft 273 kts 266°
2026-05-05 23:33 -15.98685 -48.12102 8294 ft 272 kts 266°
2026-05-05 23:33 -15.98789 -48.14062 7823 ft 271 kts 271°
2026-05-05 23:33 -15.98273 -48.15903 7359 ft 266 kts 308°
2026-05-05 23:34 -15.96887 -48.17094 6931 ft 259 kts 341°
2026-05-05 23:34 -15.95156 -48.17417 6538 ft 251 kts
2026-05-05 23:34 -15.93483 -48.17027 6174 ft 244 kts 29°
2026-05-05 23:34 -15.92108 -48.16058 5948 ft 235 kts 49°
2026-05-05 23:35 -15.91164 -48.14711 5941 ft 226 kts 63°
2026-05-05 23:35 -15.90642 -48.13795 5948 ft 219 kts 63°
2026-05-05 23:35 -15.89607 -48.11996 5958 ft 215 kts 63°
2026-05-05 23:35 -15.89222 -48.11064 5964 ft 212 kts 78°
2026-05-05 23:36 -15.89023 -48.09049 5976 ft 212 kts 88°
2026-05-05 23:36 -15.88931 -48.07560 5942 ft 201 kts 88°
2026-05-05 23:36 -15.88870 -48.06596 5831 ft 196 kts 88°
2026-05-05 23:36 -15.88753 -48.04766 5574 ft 186 kts 88°
2026-05-05 23:37 -15.88697 -48.03876 5399 ft 177 kts 88°
2026-05-05 23:37 -15.88619 -48.02667 5207 ft 157 kts 88°
2026-05-05 23:37 -15.88551 -48.01596 5010 ft 143 kts 89°
2026-05-05 23:37 -15.88487 -48.00589 4827 ft 137 kts 88°
2026-05-05 23:38 -15.88424 -47.99607 4657 ft 135 kts 89°
2026-05-05 23:38 -15.88361 -47.98649 4464 ft 134 kts 88°
2026-05-05 23:38 -15.88298 -47.97668 4272 ft 135 kts 88°
2026-05-05 23:38 -15.88235 -47.96698 4078 ft 135 kts 88°
2026-05-05 23:39 -15.88171 -47.95725 3898 ft 135 kts 88°
2026-05-05 23:39 -15.88112 -47.94773 3695 ft 135 kts 89°
2026-05-05 23:39 -15.88052 -47.93805 3511 ft 134 kts 89°
2026-05-05 23:39 -15.88000 -47.92940 3476 ft 100 kts 86°
2026-05-05 23:40 -15.87965 -47.92395 3474 ft 51 kts 86°
2026-05-05 23:40 -15.87948 -47.92135 3472 ft 33 kts 86°
2026-05-05 23:40 -15.87915 -47.91892 3468 ft 35 kts 73°
2026-05-05 23:40 -15.87807 -47.91695 3468 ft 22 kts 55°
2026-05-05 23:41 -15.87749 -47.91605 3469 ft 14 kts 55°
2026-05-05 23:41 -15.87669 -47.91551 3470 ft 15 kts
2026-05-05 23:41 -15.87558 -47.91558 3463 ft 19 kts 356°
2026-05-05 23:41 -15.87424 -47.91567 3464 ft 19 kts 356°
2026-05-05 23:42 -15.87290 -47.91576 3464 ft 20 kts 356°
2026-05-05 23:42 -15.87150 -47.91585 3463 ft 21 kts 355°
2026-05-05 23:42 -15.87006 -47.91597 3465 ft 21 kts 356°
2026-05-05 23:42 -15.86901 -47.91612 3464 ft 9 kts 314°
2026-05-05 23:43 -15.86900 -47.91675 3465 ft 9 kts 265°
2026-05-05 23:43 -15.86904 -47.91741 3465 ft 9 kts 266°
2026-05-05 23:43 -15.86908 -47.91806 3465 ft 7 kts 268°
2026-05-05 23:43 -15.86877 -47.91828 3465 ft 6 kts 355°
2026-05-05 23:44 -15.86852 -47.91829 3465 ft 0 kts 356°